Time,TemperatureF,DewpointF,PressureIn,WindDirection,WindDirectionDegrees,WindSpeedMPH,WindSpeedGustMPH,Humidity,HourlyPrecipIn,Conditions,Clouds,dailyrainin,SoftwareType,DateUTC
2013-05-20 00:00:00,60.5,59.1,30.06,SSW,208,0.0,0.0,95,0.00,,,1.24,Wunderground v.1.15,2013-05-20 04:00:00,
2013-05-20 00:05:00,60.5,59.1,30.06,SSW,208,0.0,0.0,95,0.00,,,0.00,Wunderground v.1.15,2013-05-20 04:05:00,
2013-05-20 00:10:00,60.5,59.1,30.07,SSW,208,0.0,0.0,95,0.00,,,0.00,Wunderground v.1.15,2013-05-20 04:10:00,
2013-05-20 00:15:00,60.5,59.1,30.07,SSW,208,0.0,0.0,95,0.00,,,0.00,Wunderground v.1.15,2013-05-20 04:15:00,
2013-05-20 00:25:00,60.5,59.1,30.07,SSW,208,0.0,0.0,95,0.00,,,0.00,Wunderground v.1.15,2013-05-20 04:25:00,
2013-05-20 00:30:00,60.6,59.2,30.07,SSW,208,0.0,0.0,95,0.00,,,0.00,Wunderground v.1.15,2013-05-20 04:30:00,
2013-05-20 00:35:00,60.6,59.2,30.07,SSW,208,0.0,0.0,95,0.00,,,0.00,Wunderground v.1.15,2013-05-20 04:35:00,
2013-05-20 00:40:00,60.6,59.2,30.07,SSW,208,0.0,0.0,95,0.00,,,0.00,Wunderground v.1.15,2013-05-20 04:40:00,
2013-05-20 00:45:00,60.7,59.3,30.08,SE,136,0.0,0.0,95,0.00,,,0.00,Wunderground v.1.15,2013-05-20 04:45:00,
2013-05-20 00:55:00,60.8,59.4,30.07,SE,136,0.0,0.0,95,0.00,,,0.00,Wunderground v.1.15,2013-05-20 04:55:00,
2013-05-20 01:00:00,60.8,59.4,30.07,SE,135,0.0,0.0,95,0.00,,,0.00,Wunderground v.1.15,2013-05-20 05:00:00,
2013-05-20 01:05:00,60.9,59.5,30.07,SE,136,0.0,0.0,95,0.00,,,0.00,Wunderground v.1.15,2013-05-20 05:05:00,
2013-05-20 01:10:00,60.9,59.8,30.07,SE,136,0.0,0.0,96,0.00,,,0.00,Wunderground v.1.15,2013-05-20 05:10:00,
2013-05-20 01:15:00,60.9,59.8,30.07,SE,136,0.0,0.0,96,0.00,,,0.00,Wunderground v.1.15,2013-05-20 05:15:00,
2013-05-20 01:20:00,61.0,59.9,30.07,SE,136,0.0,0.0,96,0.00,,,0.00,Wunderground v.1.15,2013-05-20 05:20:00,
2013-05-20 01:25:00,60.9,59.8,30.07,SE,136,0.0,0.0,96,0.00,,,0.00,Wunderground v.1.15,2013-05-20 05:25:00,
2013-05-20 01:35:00,60.8,59.4,30.06,SE,135,0.0,0.0,95,0.00,,,0.00,Wunderground v.1.15,2013-05-20 05:35:00,
2013-05-20 01:40:00,60.8,59.4,30.07,SE,136,0.0,0.0,95,0.00,,,0.00,Wunderground v.1.15,2013-05-20 05:40:00,
2013-05-20 01:45:00,60.9,59.5,30.06,SE,135,0.0,0.0,95,0.00,,,0.00,Wunderground v.1.15,2013-05-20 05:45:00,
2013-05-20 01:55:00,61.0,59.6,30.06,SE,136,0.0,0.0,95,0.00,,,0.00,Wunderground v.1.15,2013-05-20 05:55:00,
2013-05-20 02:00:00,61.0,59.6,30.06,SE,136,0.0,0.0,95,0.00,,,0.00,Wunderground v.1.15,2013-05-20 06:00:00,
2013-05-20 02:10:00,60.9,59.5,30.05,SE,135,0.0,0.0,95,0.00,,,0.00,Wunderground v.1.15,2013-05-20 06:10:00,
2013-05-20 02:15:00,60.9,59.5,30.05,SE,136,0.0,0.0,95,0.00,,,0.00,Wunderground v.1.15,2013-05-20 06:15:00,
2013-05-20 02:20:00,60.9,59.5,30.05,SE,136,0.0,0.0,95,0.00,,,0.00,Wunderground v.1.15,2013-05-20 06:20:00,
2013-05-20 02:25:00,60.8,59.4,30.05,SE,136,0.0,0.0,95,0.00,,,0.00,Wunderground v.1.15,2013-05-20 06:25:00,
2013-05-20 02:30:00,60.7,59.3,30.05,SE,135,0.0,0.0,95,0.00,,,0.00,Wunderground v.1.15,2013-05-20 06:30:00,
2013-05-20 02:40:00,60.5,59.4,30.05,SE,135,0.0,0.0,96,0.00,,,0.00,Wunderground v.1.15,2013-05-20 06:40:00,
2013-05-20 02:45:00,60.3,59.2,30.05,SE,136,0.0,0.0,96,0.00,,,0.00,Wunderground v.1.15,2013-05-20 06:45:00,
2013-05-20 02:55:00,60.2,58.8,30.05,SE,136,0.0,0.0,95,0.00,,,0.00,Wunderground v.1.15,2013-05-20 06:55:00,
2013-05-20 03:05:00,59.9,58.5,30.05,SE,136,0.0,0.0,95,0.00,,,0.00,Wunderground v.1.15,2013-05-20 07:05:00,
2013-05-20 03:10:00,59.8,58.7,30.05,SE,136,0.0,0.0,96,0.00,,,0.00,Wunderground v.1.15,2013-05-20 07:10:00,
2013-05-20 03:15:00,59.6,58.5,30.05,SE,136,0.0,0.0,96,0.00,,,0.00,Wunderground v.1.15,2013-05-20 07:15:00,
2013-05-20 03:25:00,59.4,58.0,30.05,SE,136,0.0,0.0,95,0.00,,,0.00,Wunderground v.1.15,2013-05-20 07:25:00,
2013-05-20 03:30:00,59.3,57.9,30.05,SE,136,0.0,0.0,95,0.00,,,0.00,Wunderground v.1.15,2013-05-20 07:30:00,
2013-05-20 03:40:00,59.3,57.9,30.05,SE,136,0.0,0.0,95,0.00,,,0.00,Wunderground v.1.15,2013-05-20 07:40:00,
2013-05-20 03:45:00,59.3,58.2,30.05,SE,136,0.0,0.0,96,0.00,,,0.00,Wunderground v.1.15,2013-05-20 07:45:00,
2013-05-20 03:50:00,59.3,58.2,30.05,SE,135,0.0,0.0,96,0.00,,,0.00,Wunderground v.1.15,2013-05-20 07:50:00,
2013-05-20 03:55:00,59.2,58.1,30.05,SE,136,0.0,0.0,96,0.00,,,0.00,Wunderground v.1.15,2013-05-20 07:55:00,
2013-05-20 04:00:00,59.1,58.0,30.05,SE,136,0.0,0.0,96,0.00,,,0.00,Wunderground v.1.15,2013-05-20 08:00:00,
2013-05-20 04:10:00,59.1,58.0,30.05,SE,136,0.0,0.0,96,0.00,,,0.00,Wunderground v.1.15,2013-05-20 08:10:00,
2013-05-20 04:15:00,59.1,58.0,30.06,SE,135,0.0,0.0,96,0.00,,,0.00,Wunderground v.1.15,2013-05-20 08:15:00,
2013-05-20 04:25:00,59.1,58.0,30.06,SE,136,0.0,0.0,96,0.00,,,0.00,Wunderground v.1.15,2013-05-20 08:25:00,
2013-05-20 04:30:00,59.1,58.0,30.05,SE,135,0.0,0.0,96,0.00,,,0.00,Wunderground v.1.15,2013-05-20 08:30:00,
2013-05-20 04:35:00,59.1,58.0,30.05,SE,136,0.0,0.0,96,0.00,,,0.00,Wunderground v.1.15,2013-05-20 08:35:00,
2013-05-20 04:40:00,59.1,58.0,30.05,SE,135,0.0,0.0,96,0.00,,,0.00,Wunderground v.1.15,2013-05-20 08:40:00,
2013-05-20 04:45:00,59.1,58.0,30.05,SE,136,0.0,0.0,96,0.00,,,0.00,Wunderground v.1.15,2013-05-20 08:45:00,
2013-05-20 04:55:00,59.1,58.0,30.05,SE,135,0.0,0.0,96,0.00,,,0.00,Wunderground v.1.15,2013-05-20 08:55:00,
2013-05-20 05:00:00,59.2,58.1,30.05,SE,136,0.0,0.0,96,0.00,,,0.00,Wunderground v.1.15,2013-05-20 09:00:00,
2013-05-20 05:05:00,59.2,58.1,30.05,SE,136,0.0,0.0,96,0.00,,,0.00,Wunderground v.1.15,2013-05-20 09:05:00,
2013-05-20 05:10:00,59.1,58.0,30.05,SE,135,0.0,0.0,96,0.00,,,0.00,Wunderground v.1.15,2013-05-20 09:10:00,
2013-05-20 05:15:00,59.1,58.0,30.05,SE,135,0.0,0.0,96,0.00,,,0.00,Wunderground v.1.15,2013-05-20 09:15:00,
2013-05-20 05:25:00,59.0,57.9,30.05,SE,135,0.0,0.0,96,0.00,,,0.00,Wunderground v.1.15,2013-05-20 09:25:00,
2013-05-20 05:30:00,59.0,57.9,30.05,SE,136,0.0,0.0,96,0.00,,,0.00,Wunderground v.1.15,2013-05-20 09:30:00,
2013-05-20 05:35:00,59.0,57.9,30.05,SE,136,0.0,0.0,96,0.00,,,0.00,Wunderground v.1.15,2013-05-20 09:35:00,
2013-05-20 05:40:00,58.9,57.8,30.06,SE,136,0.0,0.0,96,0.00,,,0.00,Wunderground v.1.15,2013-05-20 09:40:00,
2013-05-20 05:45:00,59.0,57.9,30.06,SE,135,0.0,0.0,96,0.00,,,0.00,Wunderground v.1.15,2013-05-20 09:45:00,
2013-05-20 05:55:00,59.1,58.0,30.07,SE,136,0.0,0.0,96,0.00,,,0.00,Wunderground v.1.15,2013-05-20 09:55:00,
2013-05-20 06:00:00,59.1,58.0,30.07,SE,135,0.0,0.0,96,0.00,,,0.00,Wunderground v.1.15,2013-05-20 10:00:00,
2013-05-20 06:10:00,59.1,58.0,30.07,SE,136,0.0,0.0,96,0.00,,,0.00,Wunderground v.1.15,2013-05-20 10:10:00,
2013-05-20 06:15:00,59.2,58.1,30.07,SE,136,0.0,0.0,96,0.00,,,0.00,Wunderground v.1.15,2013-05-20 10:15:00,
2013-05-20 06:25:00,59.3,58.2,30.07,SE,136,0.0,0.0,96,0.00,,,0.00,Wunderground v.1.15,2013-05-20 10:25:00,
2013-05-20 06:30:00,59.3,58.2,30.07,SE,135,0.0,0.0,96,0.00,,,0.00,Wunderground v.1.15,2013-05-20 10:30:00,
2013-05-20 06:35:00,59.3,58.2,30.07,SE,136,0.0,0.0,96,0.00,,,0.00,Wunderground v.1.15,2013-05-20 10:35:00,
2013-05-20 06:40:00,59.4,58.3,30.07,SE,136,0.0,0.0,96,0.00,,,0.00,Wunderground v.1.15,2013-05-20 10:40:00,
2013-05-20 06:45:00,59.4,58.3,30.08,SE,135,0.0,0.0,96,0.00,,,0.00,Wunderground v.1.15,2013-05-20 10:45:00,
2013-05-20 06:55:00,59.8,58.7,30.09,SE,136,0.0,0.0,96,0.00,,,0.00,Wunderground v.1.15,2013-05-20 10:55:00,
2013-05-20 07:00:00,59.8,58.7,30.09,SE,135,0.0,0.0,96,0.00,,,0.00,Wunderground v.1.15,2013-05-20 11:00:00,
2013-05-20 07:10:00,59.7,58.6,30.09,SE,136,0.0,0.0,96,0.00,,,0.00,Wunderground v.1.15,2013-05-20 11:10:00,
2013-05-20 07:20:00,59.7,58.6,30.08,SE,136,0.0,0.0,96,0.00,,,0.01,Wunderground v.1.15,2013-05-20 11:20:00,
2013-05-20 07:25:00,59.7,58.6,30.09,SE,136,0.0,0.0,96,0.00,,,0.01,Wunderground v.1.15,2013-05-20 11:25:00,
2013-05-20 07:30:00,59.7,58.6,30.09,SE,136,0.0,0.0,96,0.00,,,0.01,Wunderground v.1.15,2013-05-20 11:30:00,
2013-05-20 07:40:00,59.7,58.6,30.10,SE,136,0.0,0.0,96,0.04,,,0.02,Wunderground v.1.15,2013-05-20 11:40:00,
2013-05-20 07:50:00,59.8,58.7,30.10,SE,136,0.0,0.0,96,0.05,,,0.03,Wunderground v.1.15,2013-05-20 11:50:00,
2013-05-20 07:55:00,59.8,58.7,30.10,SE,136,0.0,0.0,96,0.06,,,0.04,Wunderground v.1.15,2013-05-20 11:55:00,
2013-05-20 08:00:00,59.8,58.7,30.11,SE,136,0.0,0.0,96,0.10,,,0.05,Wunderground v.1.15,2013-05-20 12:00:00,
2013-05-20 08:10:00,59.8,58.7,30.11,SE,136,0.0,0.0,96,0.10,,,0.06,Wunderground v.1.15,2013-05-20 12:10:00,
2013-05-20 08:15:00,59.8,58.7,30.11,SE,135,0.0,0.0,96,0.09,,,0.07,Wunderground v.1.15,2013-05-20 12:15:00,
2013-05-20 08:25:00,59.8,58.7,30.12,SE,136,0.0,0.0,96,0.14,,,0.10,Wunderground v.1.15,2013-05-20 12:25:00,
2013-05-20 08:30:00,59.9,58.8,30.12,SE,135,0.0,0.0,96,0.13,,,0.11,Wunderground v.1.15,2013-05-20 12:30:00,
2013-05-20 08:35:00,59.8,58.7,30.12,SE,135,0.0,0.0,96,0.10,,,0.12,Wunderground v.1.15,2013-05-20 12:35:00,
2013-05-20 08:40:00,59.8,58.7,30.12,SE,136,0.0,0.0,96,0.11,,,0.13,Wunderground v.1.15,2013-05-20 12:40:00,
2013-05-20 08:45:00,59.8,58.7,30.12,SE,136,0.0,0.0,96,0.11,,,0.13,Wunderground v.1.15,2013-05-20 12:45:00,
2013-05-20 08:55:00,59.8,58.7,30.13,SE,136,0.0,0.0,96,0.13,,,0.16,Wunderground v.1.15,2013-05-20 12:55:00,
2013-05-20 09:05:00,59.9,58.8,30.12,SE,136,0.0,0.0,96,0.15,,,0.18,Wunderground v.1.15,2013-05-20 13:05:00,
2013-05-20 09:10:00,59.9,58.8,30.12,SE,135,0.0,0.0,96,0.15,,,0.19,Wunderground v.1.15,2013-05-20 13:10:00,
2013-05-20 09:15:00,59.9,58.8,30.13,SE,135,0.0,0.0,96,0.15,,,0.21,Wunderground v.1.15,2013-05-20 13:15:00,
2013-05-20 09:20:00,60.1,59.0,30.14,SSW,203,0.0,0.0,96,0.12,,,0.22,Wunderground v.1.15,2013-05-20 13:20:00,
2013-05-20 09:25:00,60.1,59.0,30.13,SE,128,1.0,1.0,96,0.15,,,0.23,Wunderground v.1.15,2013-05-20 13:25:00,
2013-05-20 09:30:00,60.0,58.9,30.13,SE,128,0.0,0.0,96,0.14,,,0.24,Wunderground v.1.15,2013-05-20 13:30:00,
2013-05-20 09:40:00,60.1,59.0,30.14,SE,128,0.0,0.0,96,0.12,,,0.26,Wunderground v.1.15,2013-05-20 13:40:00,
2013-05-20 09:45:00,60.2,59.1,30.15,SE,128,0.0,0.0,96,0.13,,,0.27,Wunderground v.1.15,2013-05-20 13:45:00,
2013-05-20 09:55:00,60.2,59.1,30.14,SE,128,0.0,0.0,96,0.12,,,0.29,Wunderground v.1.15,2013-05-20 13:55:00,
2013-05-20 10:00:00,60.2,59.1,30.15,SE,128,0.0,0.0,96,0.10,,,0.30,Wunderground v.1.15,2013-05-20 14:00:00,
2013-05-20 10:10:00,60.2,59.1,30.13,SE,128,0.0,0.0,96,0.10,,,0.32,Wunderground v.1.15,2013-05-20 14:10:00,
2013-05-20 10:15:00,60.3,59.2,30.13,SE,128,0.0,0.0,96,0.11,,,0.33,Wunderground v.1.15,2013-05-20 14:15:00,
2013-05-20 10:25:00,60.4,59.3,30.14,SE,128,0.0,0.0,96,0.12,,,0.35,Wunderground v.1.15,2013-05-20 14:25:00,
2013-05-20 10:30:00,60.4,59.3,30.15,SE,128,0.0,0.0,96,0.13,,,0.36,Wunderground v.1.15,2013-05-20 14:30:00,
2013-05-20 10:40:00,60.4,59.3,30.14,SE,128,0.0,0.0,96,0.13,,,0.38,Wunderground v.1.15,2013-05-20 14:40:00,
2013-05-20 10:45:00,60.3,59.2,30.14,East,82,1.0,3.0,96,0.14,,,0.39,Wunderground v.1.15,2013-05-20 14:45:00,
2013-05-20 10:50:00,60.3,59.2,30.13,East,98,1.0,1.0,96,0.13,,,0.40,Wunderground v.1.15,2013-05-20 14:50:00,
2013-05-20 10:55:00,60.3,59.2,30.13,East,98,1.0,1.0,96,0.13,,,0.41,Wunderground v.1.15,2013-05-20 14:55:00,
2013-05-20 11:00:00,60.3,59.2,30.14,East,98,0.0,0.0,96,0.12,,,0.42,Wunderground v.1.15,2013-05-20 15:00:00,
2013-05-20 11:10:00,60.3,59.2,30.15,East,98,0.0,0.0,96,0.11,,,0.44,Wunderground v.1.15,2013-05-20 15:10:00,
2013-05-20 11:15:00,60.4,59.3,30.15,East,98,0.0,0.0,96,0.11,,,0.45,Wunderground v.1.15,2013-05-20 15:15:00,
2013-05-20 11:25:00,60.4,59.3,30.13,ENE,63,0.0,1.0,96,0.11,,,0.47,Wunderground v.1.15,2013-05-20 15:25:00,
2013-05-20 11:35:00,60.6,59.5,30.14,ENE,63,0.0,0.0,96,0.10,,,0.48,Wunderground v.1.15,2013-05-20 15:35:00,
2013-05-20 11:40:00,60.7,59.6,30.14,ENE,62,0.0,0.0,96,0.10,,,0.49,Wunderground v.1.15,2013-05-20 15:40:00,
2013-05-20 11:45:00,60.9,59.8,30.14,ENE,62,0.0,0.0,96,0.08,,,0.50,Wunderground v.1.15,2013-05-20 15:45:00,
2013-05-20 11:55:00,61.1,60.0,30.14,ENE,62,0.0,0.0,96,0.08,,,0.51,Wunderground v.1.15,2013-05-20 15:55:00,
2013-05-20 12:05:00,61.4,60.2,30.14,ENE,63,0.0,0.0,96,0.06,,,0.52,Wunderground v.1.15,2013-05-20 16:05:00,
2013-05-20 12:10:00,61.6,60.4,30.14,ENE,63,0.0,0.0,96,0.06,,,0.52,Wunderground v.1.15,2013-05-20 16:10:00,
2013-05-20 12:15:00,61.7,60.5,30.13,ENE,63,0.0,0.0,96,0.05,,,0.53,Wunderground v.1.15,2013-05-20 16:15:00,
2013-05-20 12:20:00,61.9,60.7,30.13,ENE,62,0.0,1.0,96,0.05,,,0.53,Wunderground v.1.15,2013-05-20 16:20:00,
2013-05-20 12:25:00,61.9,60.7,30.14,NW,324,0.0,1.0,96,0.05,,,0.53,Wunderground v.1.15,2013-05-20 16:25:00,
2013-05-20 12:30:00,62.0,60.8,30.13,NW,324,0.0,1.0,96,0.00,,,0.53,Wunderground v.1.15,2013-05-20 16:30:00,
2013-05-20 12:40:00,62.1,60.9,30.13,NW,324,0.0,0.0,96,0.00,,,0.53,Wunderground v.1.15,2013-05-20 16:40:00,
2013-05-20 12:45:00,62.2,61.0,30.13,NW,324,0.0,1.0,96,0.00,,,0.53,Wunderground v.1.15,2013-05-20 16:45:00,
2013-05-20 12:55:00,62.5,61.3,30.13,North,355,0.0,0.0,96,0.00,,,0.53,Wunderground v.1.15,2013-05-20 16:55:00,
2013-05-20 13:00:00,62.4,61.2,30.13,North,355,0.0,0.0,96,0.00,,,0.53,Wunderground v.1.15,2013-05-20 17:00:00,
2013-05-20 13:05:00,62.5,61.3,30.13,North,355,0.0,0.0,96,0.00,,,0.53,Wunderground v.1.15,2013-05-20 17:05:00,
2013-05-20 13:10:00,62.8,61.6,30.13,North,355,0.0,0.0,96,0.00,,,0.53,Wunderground v.1.15,2013-05-20 17:10:00,
2013-05-20 13:20:00,62.9,61.7,30.13,ENE,74,0.0,0.0,96,0.00,,,0.53,Wunderground v.1.15,2013-05-20 17:20:00,
2013-05-20 13:25:00,63.1,61.9,30.13,ESE,119,0.0,0.0,96,0.00,,,0.53,Wunderground v.1.15,2013-05-20 17:25:00,
2013-05-20 13:30:00,63.2,62.0,30.13,ESE,119,0.0,0.0,96,0.00,,,0.53,Wunderground v.1.15,2013-05-20 17:30:00,
2013-05-20 13:40:00,64.0,62.8,30.13,ESE,119,0.0,0.0,96,0.00,,,0.53,Wunderground v.1.15,2013-05-20 17:40:00,
2013-05-20 13:45:00,64.2,63.0,30.13,SE,128,0.0,0.0,96,0.00,,,0.53,Wunderground v.1.15,2013-05-20 17:45:00,
2013-05-20 13:55:00,64.5,63.3,30.13,East,96,1.0,1.0,96,0.00,,,0.53,Wunderground v.1.15,2013-05-20 17:55:00,
2013-05-20 14:00:00,64.4,63.2,30.14,ESE,119,1.0,1.0,96,0.00,,,0.53,Wunderground v.1.15,2013-05-20 18:00:00,
2013-05-20 14:05:00,64.8,63.6,30.13,ESE,123,1.0,1.0,96,0.00,,,0.53,Wunderground v.1.15,2013-05-20 18:05:00,
2013-05-20 14:10:00,65.0,63.8,30.13,ENE,67,0.0,0.0,96,0.00,,,0.53,Wunderground v.1.15,2013-05-20 18:10:00,
2013-05-20 14:15:00,65.4,64.2,30.12,ESE,120,0.0,0.0,96,0.00,,,0.53,Wunderground v.1.15,2013-05-20 18:15:00,
2013-05-20 14:25:00,66.1,64.9,30.12,SE,135,1.0,1.0,96,0.00,,,0.53,Wunderground v.1.15,2013-05-20 18:25:00,
2013-05-20 14:35:00,66.0,64.5,30.11,South,180,1.0,2.0,95,0.00,,,0.53,Wunderground v.1.15,2013-05-20 18:35:00,
2013-05-20 14:40:00,66.3,64.5,30.11,ESE,116,1.0,1.0,94,0.00,,,0.53,Wunderground v.1.15,2013-05-20 18:40:00,
2013-05-20 14:45:00,66.7,64.6,30.10,NE,46,1.0,1.0,93,0.00,,,0.53,Wunderground v.1.15,2013-05-20 18:45:00,
2013-05-20 14:50:00,66.9,64.5,30.10,ESE,117,0.0,1.0,92,0.00,,,0.53,Wunderground v.1.15,2013-05-20 18:50:00,
2013-05-20 14:55:00,67.2,65.1,30.10,ESE,117,0.0,1.0,93,0.00,,,0.53,Wunderground v.1.15,2013-05-20 18:55:00,
2013-05-20 15:00:00,67.5,65.1,30.10,ESE,117,0.0,0.0,92,0.00,,,0.53,Wunderground v.1.15,2013-05-20 19:00:00,
2013-05-20 15:10:00,68.2,65.5,30.09,ESE,117,0.0,0.0,91,0.00,,,0.53,Wunderground v.1.15,2013-05-20 19:10:00,
2013-05-20 15:15:00,68.7,66.3,30.09,East,82,0.0,0.0,92,0.00,,,0.53,Wunderground v.1.15,2013-05-20 19:15:00,
2013-05-20 15:25:00,70.1,66.4,30.08,WNW,288,2.0,2.0,88,0.00,,,0.53,Wunderground v.1.15,2013-05-20 19:25:00,
2013-05-20 15:30:00,70.7,67.0,30.07,SW,229,2.0,2.0,88,0.00,,,0.53,Wunderground v.1.15,2013-05-20 19:30:00,
2013-05-20 15:40:00,71.4,66.7,30.07,WNW,285,1.0,1.0,85,0.00,,,0.53,Wunderground v.1.15,2013-05-20 19:40:00,
2013-05-20 15:50:00,72.5,68.1,30.07,NW,312,1.0,1.0,86,0.00,,,0.53,Wunderground v.1.15,2013-05-20 19:50:00,
2013-05-20 15:55:00,73.0,67.9,30.06,WNW,302,1.0,1.0,84,0.00,,,0.53,Wunderground v.1.15,2013-05-20 19:55:00,
2013-05-20 16:00:00,73.2,67.4,30.06,NW,318,1.0,1.0,82,0.00,,,0.53,Wunderground v.1.15,2013-05-20 20:00:00,
2013-05-20 16:10:00,73.4,67.9,30.06,WNW,299,2.0,2.0,83,0.00,,,0.53,Wunderground v.1.15,2013-05-20 20:10:00,
2013-05-20 16:15:00,73.6,67.8,30.06,NW,308,1.0,2.0,82,0.00,,,0.53,Wunderground v.1.15,2013-05-20 20:15:00,
2013-05-20 16:25:00,73.9,68.1,30.05,NW,305,1.0,1.0,82,0.00,,,0.53,Wunderground v.1.15,2013-05-20 20:25:00,
2013-05-20 16:30:00,73.9,68.1,30.05,NNW,336,1.0,4.0,82,0.00,,,0.53,Wunderground v.1.15,2013-05-20 20:30:00,
2013-05-20 16:35:00,73.7,68.2,30.05,North,355,1.0,4.0,83,0.00,,,0.53,Wunderground v.1.15,2013-05-20 20:35:00,
2013-05-20 16:40:00,73.7,68.2,30.05,NNW,346,1.0,3.0,83,0.00,,,0.53,Wunderground v.1.15,2013-05-20 20:40:00,
2013-05-20 16:45:00,73.5,67.7,30.05,NW,306,1.0,3.0,82,0.00,,,0.53,Wunderground v.1.15,2013-05-20 20:45:00,
2013-05-20 16:55:00,73.3,67.8,30.04,WNW,302,1.0,3.0,83,0.00,,,0.53,Wunderground v.1.15,2013-05-20 20:55:00,
2013-05-20 17:00:00,73.1,68.0,30.04,WNW,300,1.0,1.0,84,0.00,,,0.53,Wunderground v.1.15,2013-05-20 21:00:00,
2013-05-20 17:05:00,73.0,67.5,30.04,WNW,300,1.0,1.0,83,0.00,,,0.53,Wunderground v.1.15,2013-05-20 21:05:00,
2013-05-20 17:15:00,72.8,68.4,30.04,NW,319,1.0,1.0,86,0.00,,,0.53,Wunderground v.1.15,2013-05-20 21:15:00,
2013-05-20 17:20:00,72.6,68.5,30.04,NW,319,0.0,0.0,87,0.00,,,0.53,Wunderground v.1.15,2013-05-20 21:20:00,
2013-05-20 17:25:00,72.4,68.3,30.04,NW,319,0.0,0.0,87,0.00,,,0.53,Wunderground v.1.15,2013-05-20 21:25:00,
2013-05-20 17:35:00,71.9,68.5,30.05,NW,319,0.0,0.0,89,0.00,,,0.53,Wunderground v.1.15,2013-05-20 21:35:00,
2013-05-20 17:40:00,71.8,68.4,30.05,NW,319,0.0,0.0,89,0.00,,,0.53,Wunderground v.1.15,2013-05-20 21:40:00,
2013-05-20 17:45:00,71.9,68.5,30.05,NW,319,0.0,0.0,89,0.00,,,0.53,Wunderground v.1.15,2013-05-20 21:45:00,
2013-05-20 17:50:00,71.7,68.3,30.06,NW,319,0.0,0.0,89,0.00,,,0.53,Wunderground v.1.15,2013-05-20 21:50:00,
2013-05-20 17:55:00,71.7,68.3,30.06,NW,319,0.0,0.0,89,0.00,,,0.53,Wunderground v.1.15,2013-05-20 21:55:00,
2013-05-20 18:00:00,72.0,68.9,30.06,NW,319,0.0,0.0,90,0.00,,,0.53,Wunderground v.1.15,2013-05-20 22:00:00,
2013-05-20 18:10:00,72.1,68.7,30.05,NW,319,0.0,0.0,89,0.00,,,0.53,Wunderground v.1.15,2013-05-20 22:10:00,
2013-05-20 18:15:00,72.2,68.8,30.05,NW,319,0.0,0.0,89,0.00,,,0.53,Wunderground v.1.15,2013-05-20 22:15:00,
2013-05-20 18:25:00,72.3,68.9,30.05,NW,319,0.0,0.0,89,0.00,,,0.53,Wunderground v.1.15,2013-05-20 22:25:00,
2013-05-20 18:30:00,72.2,68.8,30.04,NW,319,0.0,0.0,89,0.00,,,0.53,Wunderground v.1.15,2013-05-20 22:30:00,
2013-05-20 18:35:00,72.1,68.7,30.04,NW,319,0.0,0.0,89,0.00,,,0.53,Wunderground v.1.15,2013-05-20 22:35:00,
2013-05-20 18:40:00,72.1,68.7,30.04,NW,319,0.0,0.0,89,0.00,,,0.53,Wunderground v.1.15,2013-05-20 22:40:00,
2013-05-20 18:45:00,72.2,68.8,30.04,NW,319,0.0,0.0,89,0.00,,,0.53,Wunderground v.1.15,2013-05-20 22:45:00,
2013-05-20 18:55:00,72.2,68.8,30.03,NW,319,0.0,0.0,89,0.00,,,0.53,Wunderground v.1.15,2013-05-20 22:55:00,
2013-05-20 19:00:00,72.1,68.7,30.03,NW,319,0.0,0.0,89,0.00,,,0.53,Wunderground v.1.15,2013-05-20 23:00:00,
2013-05-20 19:10:00,71.9,68.2,30.03,NW,319,0.0,0.0,88,0.00,,,0.53,Wunderground v.1.15,2013-05-20 23:10:00,
2013-05-20 19:15:00,71.8,68.1,30.03,NW,319,0.0,0.0,88,0.00,,,0.53,Wunderground v.1.15,2013-05-20 23:15:00,
2013-05-20 19:20:00,71.6,67.9,30.03,NW,319,0.0,0.0,88,0.00,,,0.53,Wunderground v.1.15,2013-05-20 23:20:00,
2013-05-20 19:25:00,71.5,67.8,30.03,NW,319,0.0,0.0,88,0.00,,,0.53,Wunderground v.1.15,2013-05-20 23:25:00,
2013-05-20 19:30:00,71.2,67.5,30.03,NW,319,0.0,0.0,88,0.00,,,0.53,Wunderground v.1.15,2013-05-20 23:30:00,
2013-05-20 19:40:00,70.8,67.1,30.04,NW,319,0.0,0.0,88,0.00,,,0.53,Wunderground v.1.15,2013-05-20 23:40:00,
2013-05-20 19:45:00,70.4,66.7,30.04,NW,319,0.0,0.0,88,0.00,,,0.53,Wunderground v.1.15,2013-05-20 23:45:00,
2013-05-20 19:50:00,70.1,66.7,30.04,NW,319,0.0,0.0,89,0.00,,,0.53,Wunderground v.1.15,2013-05-20 23:50:00,
2013-05-20 19:55:00,70.0,66.6,30.04,NW,319,0.0,0.0,89,0.00,,,0.53,Wunderground v.1.15,2013-05-20 23:55:00,
2013-05-20 20:00:00,69.9,66.5,30.04,NW,319,0.0,0.0,89,0.00,,,0.53,Wunderground v.1.15,2013-05-21 00:00:00,
2013-05-20 20:10:00,69.5,66.4,30.04,NW,319,0.0,0.0,90,0.00,,,0.53,Wunderground v.1.15,2013-05-21 00:10:00,
2013-05-20 20:15:00,69.1,66.0,30.04,NW,319,0.0,0.0,90,0.00,,,0.53,Wunderground v.1.15,2013-05-21 00:15:00,
2013-05-20 20:25:00,68.5,65.4,30.04,NW,319,0.0,0.0,90,0.00,,,0.53,Wunderground v.1.15,2013-05-21 00:25:00,
2013-05-20 20:30:00,68.1,65.1,30.04,NW,319,0.0,0.0,90,0.00,,,0.53,Wunderground v.1.15,2013-05-21 00:30:00,
2013-05-20 20:40:00,67.4,64.7,30.04,NW,319,0.0,0.0,91,0.00,,,0.53,Wunderground v.1.15,2013-05-21 00:40:00,
2013-05-20 20:45:00,67.1,64.4,30.04,NW,319,0.0,0.0,91,0.00,,,0.53,Wunderground v.1.15,2013-05-21 00:45:00,
2013-05-20 20:50:00,66.7,64.0,30.04,NW,319,0.0,0.0,91,0.00,,,0.53,Wunderground v.1.15,2013-05-21 00:50:00,
2013-05-20 20:55:00,66.2,63.5,30.04,NW,319,0.0,0.0,91,0.00,,,0.53,Wunderground v.1.15,2013-05-21 00:55:00,
2013-05-20 21:05:00,65.6,63.2,30.04,NW,319,0.0,0.0,92,0.00,,,0.53,Wunderground v.1.15,2013-05-21 01:05:00,
2013-05-20 21:15:00,64.8,62.4,30.05,NW,319,0.0,0.0,92,0.00,,,0.53,Wunderground v.1.15,2013-05-21 01:15:00,
2013-05-20 21:25:00,64.3,61.9,30.05,NW,319,0.0,0.0,92,0.00,,,0.53,Wunderground v.1.15,2013-05-21 01:25:00,
2013-05-20 21:30:00,64.0,61.6,30.05,NW,319,0.0,0.0,92,0.00,,,0.53,Wunderground v.1.15,2013-05-21 01:30:00,
2013-05-20 21:35:00,63.8,61.7,30.05,NW,319,0.0,0.0,93,0.00,,,0.53,Wunderground v.1.15,2013-05-21 01:35:00,
2013-05-20 21:40:00,63.5,61.4,30.05,NW,319,0.0,0.0,93,0.00,,,0.53,Wunderground v.1.15,2013-05-21 01:40:00,
2013-05-20 21:50:00,63.1,61.0,30.05,NW,319,0.0,0.0,93,0.00,,,0.53,Wunderground v.1.15,2013-05-21 01:50:00,
2013-05-20 21:55:00,62.9,60.8,30.06,NW,319,0.0,0.0,93,0.00,,,0.53,Wunderground v.1.15,2013-05-21 01:55:00,
2013-05-20 22:00:00,62.6,60.5,30.06,NW,319,0.0,0.0,93,0.00,,,0.53,Wunderground v.1.15,2013-05-21 02:00:00,
2013-05-20 22:10:00,62.1,60.1,30.06,NW,319,0.0,0.0,93,0.00,,,0.53,Wunderground v.1.15,2013-05-21 02:10:00,
2013-05-20 22:15:00,61.9,59.9,30.06,NW,319,0.0,0.0,93,0.00,,,0.53,Wunderground v.1.15,2013-05-21 02:15:00,
2013-05-20 22:20:00,61.7,59.7,30.06,NW,319,0.0,0.0,93,0.00,,,0.53,Wunderground v.1.15,2013-05-21 02:20:00,
2013-05-20 22:25:00,61.6,59.6,30.06,NW,319,0.0,0.0,93,0.00,,,0.53,Wunderground v.1.15,2013-05-21 02:25:00,
2013-05-20 22:30:00,61.4,59.7,30.06,NW,319,0.0,0.0,94,0.00,,,0.53,Wunderground v.1.15,2013-05-21 02:30:00,
2013-05-20 22:40:00,60.9,58.9,30.06,NW,319,0.0,0.0,93,0.00,,,0.53,Wunderground v.1.15,2013-05-21 02:40:00,
2013-05-20 22:45:00,60.8,59.1,30.06,NW,319,0.0,0.0,94,0.00,,,0.53,Wunderground v.1.15,2013-05-21 02:45:00,
2013-05-20 22:55:00,60.6,58.9,30.06,NW,319,0.0,0.0,94,0.00,,,0.53,Wunderground v.1.15,2013-05-21 02:55:00,
2013-05-20 23:05:00,60.3,58.6,30.05,NW,319,0.0,0.0,94,0.00,,,0.53,Wunderground v.1.15,2013-05-21 03:05:00,
2013-05-20 23:10:00,60.2,58.5,30.05,NW,319,0.0,0.0,94,0.00,,,0.53,Wunderground v.1.15,2013-05-21 03:10:00,
2013-05-20 23:15:00,60.0,58.3,30.05,NW,319,0.0,0.0,94,0.00,,,0.53,Wunderground v.1.15,2013-05-21 03:15:00,
2013-05-20 23:20:00,59.9,58.2,30.05,NW,319,0.0,0.0,94,0.00,,,0.53,Wunderground v.1.15,2013-05-21 03:20:00,
2013-05-20 23:25:00,59.8,58.1,30.05,NW,319,0.0,0.0,94,0.00,,,0.53,Wunderground v.1.15,2013-05-21 03:25:00,
2013-05-20 23:35:00,59.4,57.7,30.04,NW,319,0.0,0.0,94,0.00,,,0.53,Wunderground v.1.15,2013-05-21 03:35:00,
2013-05-20 23:40:00,59.3,57.6,30.04,NW,319,0.0,0.0,94,0.00,,,0.53,Wunderground v.1.15,2013-05-21 03:40:00,
2013-05-20 23:45:00,59.2,57.5,30.04,NW,319,0.0,0.0,94,0.00,,,0.53,Wunderground v.1.15,2013-05-21 03:45:00,
2013-05-20 23:55:00,59.0,57.3,30.04,NW,319,0.0,0.0,94,0.00,,,0.53,Wunderground v.1.15,2013-05-21 03:55:00,